Location: Cronhütte
(48.9135°N, 9.6869°E)
Time: 17:37:46
(UTC+00:00)

FORMOSAT 3E - Pass Details

Date: 02 May 2025
Orbit: 742 x 834 km, 72.0° (Epoch: 13 May)

Event Time Altitude Azimuth Distance (km) Brightness Sun altitude
Rises 00:49:30 0° 320° (NW) 3,199 11.6 -22.6°
Reaches altitude 10° 00:52:32 10° 302° (WNW) 2,279 10.5 -22.4°
Enters shadow 00:54:54 17° 275° (W) 1,856 9.8 -22.2°
